Location: ?????????
(38.5999°N, 22.7695°E)
Time: 14:57:57
(UTC+00:00)

Nadezhda 3 Rocket - Pass Details

Date: 23 May 2024
Orbit: 957 x 998 km, 82.9° (Epoch: 12 June)

Event Time Altitude Azimuth Distance (km) Brightness Sun altitude
Rises 01:32:21 0° 355° (N) 3,726 7.7 -16.4°
Reaches altitude 10° 01:34:56 10° 358° (N) 2,770 7.0 -16.0°
Maximum altitude 01:41:16 68° 82° (E) 1,066 4.4 -15.1°
Drops below altitude 10° 01:47:31 10° 164° (SSE) 2,733 6.1 -14.2°
Sets 01:50:01 0° 167° (SSE) 3,671 6.7 -13.9°
